CMA CGM La Boussole — A8FZ6 — position and weather

sailwx.info

Track history (hours):
 
Tides and Currents Weather Stations Pressure Air Temp Water Temp Dewpoint Dewpoint Depression Visibility Wind Speed Wind Dir Waves Ship Positions

CMA CGM La Boussole

Last reported at 2014-Nov-06 04:31 UTC. Time now 2014-Nov-26 05:10 UTC.
Position N 31°33' W 018°21'.
Warning: this ship's position is 20 days out of date.

Length 210.1 m; beam 30.2 m; draft 11.5 m.

Type: Ship (hazmat cat D). MMSI: 636090821.

Date/timePositionNaut miles runAvg speedWind from/ knotsBaromVisibWave heightAir tempDewpointWater temp
2014-Nov-06 04:31N 31°33' W 018°21'5517.2
2014-Nov-06 01:19N 31°54' W 017°21'1317.3
2014-Nov-06 00:33N 31°58' W 017°07'1716.9
2014-Nov-05 23:33N 32°04' W 016°48'1717.1
2014-Nov-05 22:33N 32°11' W 016°30'1717.1
2014-Nov-05 21:33N 32°18' W 016°11'57216.7
2014-Nov-04 11:23N 35°57' W 005°33'2 0.1
2014-Nov-03 05:26N 35°57' W 005°31'8 8.8
2014-Nov-03 04:33N 36°00' W 005°22'25014.5
2014-Nov-02 11:16N 37°35' W 000°33'1217.1
2014-Nov-02 10:32N 37°45' W 000°25'1717.2
2014-Nov-02 09:33N 37°59' W 000°12'8414.0
2014-Nov-02 03:33N 39°23' W 000°13'6 5.6
2014-Nov-02 02:32N 39°27' W 000°19'0 0.0
2014-Nov-02 01:31N 39°27' W 000°19'0 0.0
2014-Nov-02 00:31N 39°27' W 000°19'0 0.0
2014-Nov-01 23:33N 39°27' W 000°19'0 0.0
2014-Nov-01 22:33N 39°27' W 000°19'0 0.0
2014-Nov-01 21:32N 39°27' W 000°19'0 0.0
2014-Nov-01 20:29N 39°27' W 000°19'0 0.0
2014-Nov-01 19:25N 39°27' W 000°19'0 0.0
2014-Nov-01 18:28N 39°27' W 000°19'0 0.0
2014-Nov-01 17:31N 39°27' W 000°19'0 0.0
2014-Nov-01 16:33N 39°27' W 000°19'0 0.0
2014-Nov-01 15:33N 39°27' W 000°19'0 0.0
2014-Nov-01 14:32N 39°27' W 000°19'0 0.0
2014-Nov-01 13:32N 39°27' W 000°19'0 0.0
2014-Nov-01 12:32N 39°27' W 000°19'0 0.0
2014-Nov-01 11:31N 39°27' W 000°19'0 0.0
2014-Nov-01 10:31N 39°27' W 000°19'0 0.0
2014-Nov-01 09:33N 39°27' W 000°19'0 0.2
2014-Nov-01 08:33N 39°27' W 000°19'8 7.8
2014-Nov-01 07:32N 39°27' W 000°09'4313.6
2014-Nov-01 04:24N 39°44' E 000°43'2613.9
2014-Nov-01 02:31N 40°02' E 001°06'1414.2
2014-Nov-01 01:32N 40°14' E 001°17'1414.0
2014-Nov-01 00:33N 40°25' E 001°27'1414.1
2014-Oct-31 23:33N 40°36' E 001°38'1414.0
2014-Oct-31 22:33N 40°48' E 001°48'1413.7
2014-Oct-31 21:32N 40°59' E 001°59'1313.4
2014-Oct-31 20:33N 41°11' E 002°08'1110.4
2014-Oct-31 19:31N 41°21' E 002°10'0 0.0
2014-Oct-31 15:26N 41°21' E 002°10'0 0.0
2014-Oct-31 11:08N 41°21' E 002°10'3 3.4
2014-Oct-31 10:20N 41°18' E 002°10'6 7.1
2014-Oct-31 09:26N 41°17' E 002°19'2117.8
2014-Oct-31 08:17N 41°26' E 002°44'1617.7
2014-Oct-31 07:22N 41°34' E 003°03'11418.5
2014-Oct-31 01:14N 42°59' E 004°44'1319.1
2014-Oct-31 00:33N 43°08' E 004°56'1515.0
2014-Oct-30 23:33N 43°23' E 004°56'4 3.7
2014-Oct-30 22:33N 43°25' E 004°51'0 0.0
2014-Oct-30 21:33N 43°25' E 004°51'0 0.0
2014-Oct-30 20:32N 43°25' E 004°51'0 0.0
2014-Oct-30 19:32N 43°25' E 004°51'0 0.0
2014-Oct-30 18:28N 43°25' E 004°51'0 0.0
2014-Oct-30 17:28N 43°25' E 004°51'0 0.0
2014-Oct-30 16:33N 43°25' E 004°51'0 0.0
2014-Oct-30 15:33N 43°25' E 004°51'0 0.0
2014-Oct-30 14:32N 43°25' E 004°51'0 0.0
2014-Oct-30 13:32N 43°25' E 004°51'0 0.0
2014-Oct-30 12:32N 43°25' E 004°51'0 0.0
2014-Oct-30 11:31N 43°25' E 004°51'0 0.0
2014-Oct-30 10:33N 43°25' E 004°51'0 0.0
2014-Oct-30 09:33N 43°25' E 004°51'0 0.0
2014-Oct-30 08:33N 43°25' E 004°51'0 0.0
2014-Oct-30 07:32N 43°25' E 004°51'0 0.0
2014-Oct-30 06:29N 43°25' E 004°51'0 0.0
2014-Oct-30 05:32N 43°25' E 004°51'0 0.0
2014-Oct-30 04:31N 43°25' E 004°51'2 2.2
2014-Oct-30 03:33N 43°24' E 004°54'10 9.6
2014-Oct-30 02:34N 43°16' E 005°01'1616.4
2014-Oct-30 01:33N 43°06' E 005°19'2019.9
2014-Oct-30 00:33N 42°59' E 005°44'2020.4
2014-Oct-29 23:33N 42°52' E 006°11'2020.5
2014-Oct-29 22:33N 42°59' E 006°38'2120.8
2014-Oct-29 21:33N 43°09' E 007°02'2120.7
2014-Oct-29 20:33N 43°21' E 007°25'6220.6
2014-Oct-29 17:33N 44°01' E 008°31'2019.8
2014-Oct-29 16:33N 44°15' E 008°51'10 9.5
2014-Oct-29 15:32N 44°24' E 008°54'0 0.1
2014-Oct-29 14:23N 44°24' E 008°54'0 0.0
2014-Oct-29 13:31N 44°24' E 008°54'0 0.0
2014-Oct-29 12:28N 44°24' E 008°54'0 0.0
2014-Oct-29 11:28N 44°24' E 008°54'0 0.0
2014-Oct-29 10:33N 44°24' E 008°54'0 0.0
2014-Oct-29 09:33N 44°24' E 008°54'0 0.0
2014-Oct-29 08:32N 44°24' E 008°54'0 0.0
2014-Oct-29 07:32N 44°24' E 008°54'0 0.0
2014-Oct-29 06:31N 44°24' E 008°54'0 0.0
2014-Oct-29 05:31N 44°24' E 008°54'0 0.0
2014-Oct-29 04:34N 44°24' E 008°54'0 0.0
2014-Oct-29 03:33N 44°24' E 008°54'0 0.0
2014-Oct-29 02:33N 44°24' E 008°54'0 0.0
2014-Oct-29 01:32N 44°24' E 008°54'0 0.0
2014-Oct-29 00:32N 44°24' E 008°54'0 0.0
2014-Oct-28 23:31N 44°24' E 008°54'0 0.0
2014-Oct-28 22:31N 44°24' E 008°54'0 0.0
2014-Oct-28 21:28N 44°24' E 008°54'0 0.0
2014-Oct-28 20:33N 44°24' E 008°54'0 0.0
2014-Oct-28 19:33N 44°24' E 008°54'3 3.5
2014-Oct-28 18:33N 44°22' E 008°58'1616.2
2014-Oct-28 17:33N 44°08' E 009°09'1919.5
2014-Oct-28 16:33N 43°51' E 009°23'1919.1
2014-Oct-28 15:34N 43°38' E 009°42'1818.4
2014-Oct-28 14:34N 43°30' E 010°05'10 9.7
2014-Oct-28 13:33N 43°34' E 010°18'1 0.9
2014-Oct-28 12:32N 43°35' E 010°18'0 0.0
2014-Oct-28 11:31N 43°35' E 010°18'0 0.0
2014-Oct-28 10:31N 43°35' E 010°18'0 0.0
2014-Oct-28 09:33N 43°35' E 010°18'0 0.0
2014-Oct-28 08:33N 43°35' E 010°18'0 0.0
2014-Oct-28 07:32N 43°35' E 010°18'0 0.0
2014-Oct-28 06:32N 43°35' E 010°18'0 0.0
2014-Oct-28 05:32N 43°35' E 010°18'0 0.0
2014-Oct-28 04:31N 43°35' E 010°18'0 0.0
2014-Oct-28 03:31N 43°35' E 010°18'0 0.0
2014-Oct-28 02:33N 43°35' E 010°18'0 0.0
2014-Oct-28 01:33N 43°35' E 010°18'0 0.0
2014-Oct-28 00:32N 43°35' E 010°18'0 0.0
2014-Oct-27 23:29N 43°35' E 010°18'0 0.0
2014-Oct-27 22:32N 43°35' E 010°18'0 0.0
2014-Oct-27 21:31N 43°35' E 010°18'0 0.0
2014-Oct-27 20:31N 43°35' E 010°18'0 0.0
2014-Oct-27 19:33N 43°35' E 010°18'0 0.0
2014-Oct-27 18:33N 43°35' E 010°18'0 0.0
2014-Oct-27 17:29N 43°35' E 010°18'0 0.0
2014-Oct-27 16:32N 43°35' E 010°18'0 0.0
2014-Oct-27 15:31N 43°35' E 010°18'0 0.0
2014-Oct-27 14:31N 43°35' E 010°18'0 0.0
2014-Oct-27 13:31N 43°35' E 010°18'0 0.0
2014-Oct-27 12:33N 43°35' E 010°18'0 0.0
2014-Oct-27 11:33N 43°35' E 010°18'0 0.1
2014-Oct-27 10:33N 43°34' E 010°18'5 5.3
2014-Oct-27 09:33N 43°30' E 010°14'1515.5
2014-Oct-27 08:34N 43°20' E 009°58'1615.8
2014-Oct-27 07:34N 43°16' E 009°37'1615.8
2014-Oct-27 06:33N 43°11' E 009°16'  
Track history (hours):
 
Tides and Currents Weather Stations Pressure Air Temp Water Temp Dewpoint Dewpoint Depression Visibility Wind Speed Wind Dir Waves Ship Positions

CMA CGM La Boussole

Last reported at 2014-Nov-06 04:31 UTC. Time now 2014-Nov-26 05:10 UTC.
Position N 31°33' W 018°21'.
Warning: this ship's position is 20 days out of date.

Length 210.1 m; beam 30.2 m; draft 11.5 m.

Type: Ship (hazmat cat D). MMSI: 636090821.

Date/timePositionNaut miles runAvg speedWind from/ knotsBaromVisibWave heightAir tempDewpointWater temp
2014-Nov-06 04:31N 31°33' W 018°21'5517.2
2014-Nov-06 01:19N 31°54' W 017°21'1317.3
2014-Nov-06 00:33N 31°58' W 017°07'1716.9
2014-Nov-05 23:33N 32°04' W 016°48'1717.1
2014-Nov-05 22:33N 32°11' W 016°30'1717.1
2014-Nov-05 21:33N 32°18' W 016°11'57216.7
2014-Nov-04 11:23N 35°57' W 005°33'2 0.1
2014-Nov-03 05:26N 35°57' W 005°31'8 8.8
2014-Nov-03 04:33N 36°00' W 005°22'25014.5
2014-Nov-02 11:16N 37°35' W 000°33'1217.1
2014-Nov-02 10:32N 37°45' W 000°25'1717.2
2014-Nov-02 09:33N 37°59' W 000°12'8414.0
2014-Nov-02 03:33N 39°23' W 000°13'6 5.6
2014-Nov-02 02:32N 39°27' W 000°19'0 0.0
2014-Nov-02 01:31N 39°27' W 000°19'0 0.0
2014-Nov-02 00:31N 39°27' W 000°19'0 0.0
2014-Nov-01 23:33N 39°27' W 000°19'0 0.0
2014-Nov-01 22:33N 39°27' W 000°19'0 0.0
2014-Nov-01 21:32N 39°27' W 000°19'0 0.0
2014-Nov-01 20:29N 39°27' W 000°19'0 0.0
2014-Nov-01 19:25N 39°27' W 000°19'0 0.0
2014-Nov-01 18:28N 39°27' W 000°19'0 0.0
2014-Nov-01 17:31N 39°27' W 000°19'0 0.0
2014-Nov-01 16:33N 39°27' W 000°19'0 0.0
2014-Nov-01 15:33N 39°27' W 000°19'0 0.0
2014-Nov-01 14:32N 39°27' W 000°19'0 0.0
2014-Nov-01 13:32N 39°27' W 000°19'0 0.0
2014-Nov-01 12:32N 39°27' W 000°19'0 0.0
2014-Nov-01 11:31N 39°27' W 000°19'0 0.0
2014-Nov-01 10:31N 39°27' W 000°19'0 0.0
2014-Nov-01 09:33N 39°27' W 000°19'0 0.2
2014-Nov-01 08:33N 39°27' W 000°19'8 7.8
2014-Nov-01 07:32N 39°27' W 000°09'4313.6
2014-Nov-01 04:24N 39°44' E 000°43'2613.9
2014-Nov-01 02:31N 40°02' E 001°06'1414.2
2014-Nov-01 01:32N 40°14' E 001°17'1414.0
2014-Nov-01 00:33N 40°25' E 001°27'1414.1
2014-Oct-31 23:33N 40°36' E 001°38'1414.0
2014-Oct-31 22:33N 40°48' E 001°48'1413.7
2014-Oct-31 21:32N 40°59' E 001°59'1313.4
2014-Oct-31 20:33N 41°11' E 002°08'1110.4
2014-Oct-31 19:31N 41°21' E 002°10'0 0.0
2014-Oct-31 15:26N 41°21' E 002°10'0 0.0
2014-Oct-31 11:08N 41°21' E 002°10'3 3.4
2014-Oct-31 10:20N 41°18' E 002°10'6 7.1
2014-Oct-31 09:26N 41°17' E 002°19'2117.8
2014-Oct-31 08:17N 41°26' E 002°44'1617.7
2014-Oct-31 07:22N 41°34' E 003°03'11418.5
2014-Oct-31 01:14N 42°59' E 004°44'1319.1
2014-Oct-31 00:33N 43°08' E 004°56'1515.0
2014-Oct-30 23:33N 43°23' E 004°56'4 3.7
2014-Oct-30 22:33N 43°25' E 004°51'0 0.0
2014-Oct-30 21:33N 43°25' E 004°51'0 0.0
2014-Oct-30 20:32N 43°25' E 004°51'0 0.0
2014-Oct-30 19:32N 43°25' E 004°51'0 0.0
2014-Oct-30 18:28N 43°25' E 004°51'0 0.0
2014-Oct-30 17:28N 43°25' E 004°51'0 0.0
2014-Oct-30 16:33N 43°25' E 004°51'0 0.0
2014-Oct-30 15:33N 43°25' E 004°51'0 0.0
2014-Oct-30 14:32N 43°25' E 004°51'0 0.0
2014-Oct-30 13:32N 43°25' E 004°51'0 0.0
2014-Oct-30 12:32N 43°25' E 004°51'0 0.0
2014-Oct-30 11:31N 43°25' E 004°51'0 0.0
2014-Oct-30 10:33N 43°25' E 004°51'0 0.0
2014-Oct-30 09:33N 43°25' E 004°51'0 0.0
2014-Oct-30 08:33N 43°25' E 004°51'0 0.0
2014-Oct-30 07:32N 43°25' E 004°51'0 0.0
2014-Oct-30 06:29N 43°25' E 004°51'0 0.0
2014-Oct-30 05:32N 43°25' E 004°51'0 0.0
2014-Oct-30 04:31N 43°25' E 004°51'2 2.2
2014-Oct-30 03:33N 43°24' E 004°54'10 9.6
2014-Oct-30 02:34N 43°16' E 005°01'1616.4
2014-Oct-30 01:33N 43°06' E 005°19'2019.9
2014-Oct-30 00:33N 42°59' E 005°44'2020.4
2014-Oct-29 23:33N 42°52' E 006°11'2020.5
2014-Oct-29 22:33N 42°59' E 006°38'2120.8
2014-Oct-29 21:33N 43°09' E 007°02'2120.7
2014-Oct-29 20:33N 43°21' E 007°25'6220.6
2014-Oct-29 17:33N 44°01' E 008°31'2019.8
2014-Oct-29 16:33N 44°15' E 008°51'10 9.5
2014-Oct-29 15:32N 44°24' E 008°54'0 0.1
2014-Oct-29 14:23N 44°24' E 008°54'0 0.0
2014-Oct-29 13:31N 44°24' E 008°54'0 0.0
2014-Oct-29 12:28N 44°24' E 008°54'0 0.0
2014-Oct-29 11:28N 44°24' E 008°54'0 0.0
2014-Oct-29 10:33N 44°24' E 008°54'0 0.0
2014-Oct-29 09:33N 44°24' E 008°54'0 0.0
2014-Oct-29 08:32N 44°24' E 008°54'0 0.0
2014-Oct-29 07:32N 44°24' E 008°54'0 0.0
2014-Oct-29 06:31N 44°24' E 008°54'0 0.0
2014-Oct-29 05:31N 44°24' E 008°54'0 0.0
2014-Oct-29 04:34N 44°24' E 008°54'0 0.0
2014-Oct-29 03:33N 44°24' E 008°54'0 0.0
2014-Oct-29 02:33N 44°24' E 008°54'0 0.0
2014-Oct-29 01:32N 44°24' E 008°54'0 0.0
2014-Oct-29 00:32N 44°24' E 008°54'0 0.0
2014-Oct-28 23:31N 44°24' E 008°54'0 0.0
2014-Oct-28 22:31N 44°24' E 008°54'0 0.0
2014-Oct-28 21:28N 44°24' E 008°54'0 0.0
2014-Oct-28 20:33N 44°24' E 008°54'0 0.0
2014-Oct-28 19:33N 44°24' E 008°54'3 3.5
2014-Oct-28 18:33N 44°22' E 008°58'1616.2
2014-Oct-28 17:33N 44°08' E 009°09'1919.5
2014-Oct-28 16:33N 43°51' E 009°23'1919.1
2014-Oct-28 15:34N 43°38' E 009°42'1818.4
2014-Oct-28 14:34N 43°30' E 010°05'10 9.7
2014-Oct-28 13:33N 43°34' E 010°18'1 0.9
2014-Oct-28 12:32N 43°35' E 010°18'0 0.0
2014-Oct-28 11:31N 43°35' E 010°18'0 0.0
2014-Oct-28 10:31N 43°35' E 010°18'0 0.0
2014-Oct-28 09:33N 43°35' E 010°18'0 0.0
2014-Oct-28 08:33N 43°35' E 010°18'0 0.0
2014-Oct-28 07:32N 43°35' E 010°18'0 0.0
2014-Oct-28 06:32N 43°35' E 010°18'0 0.0
2014-Oct-28 05:32N 43°35' E 010°18'0 0.0
2014-Oct-28 04:31N 43°35' E 010°18'0 0.0
2014-Oct-28 03:31N 43°35' E 010°18'0 0.0
2014-Oct-28 02:33N 43°35' E 010°18'0 0.0
2014-Oct-28 01:33N 43°35' E 010°18'0 0.0
2014-Oct-28 00:32N 43°35' E 010°18'0 0.0
2014-Oct-27 23:29N 43°35' E 010°18'0 0.0
2014-Oct-27 22:32N 43°35' E 010°18'0 0.0
2014-Oct-27 21:31N 43°35' E 010°18'0 0.0
2014-Oct-27 20:31N 43°35' E 010°18'0 0.0
2014-Oct-27 19:33N 43°35' E 010°18'0 0.0
2014-Oct-27 18:33N 43°35' E 010°18'0 0.0
2014-Oct-27 17:29N 43°35' E 010°18'0 0.0
2014-Oct-27 16:32N 43°35' E 010°18'0 0.0
2014-Oct-27 15:31N 43°35' E 010°18'0 0.0
2014-Oct-27 14:31N 43°35' E 010°18'0 0.0
2014-Oct-27 13:31N 43°35' E 010°18'0 0.0
2014-Oct-27 12:33N 43°35' E 010°18'0 0.0
2014-Oct-27 11:33N 43°35' E 010°18'0 0.1
2014-Oct-27 10:33N 43°34' E 010°18'5 5.3
2014-Oct-27 09:33N 43°30' E 010°14'1515.5
2014-Oct-27 08:34N 43°20' E 009°58'1615.8
2014-Oct-27 07:34N 43°16' E 009°37'1615.8
2014-Oct-27 06:33N 43°11' E 009°16'  

Dump ship's entire track history